Year,Month,Day,Hour,Minute,Value (Times are PST for temperature in C)
2017,01,23,00,01,6.10
2017,01,23,00,02,6.10
2017,01,23,00,03,6.10
2017,01,23,00,04,6.10
2017,01,23,00,06,6.10
2017,01,23,00,07,6.10
2017,01,23,00,09,6.10
2017,01,23,00,11,6.10
2017,01,23,00,12,6.10
2017,01,23,00,13,6.10
2017,01,23,00,14,6.10
2017,01,23,00,16,6.10
2017,01,23,00,17,6.10
2017,01,23,00,18,6.10
2017,01,23,00,19,6.10
2017,01,23,00,21,6.10
2017,01,23,00,22,6.20
2017,01,23,00,23,6.20
2017,01,23,00,24,6.20
2017,01,23,00,25,6.20
2017,01,23,00,26,6.20
2017,01,23,00,27,6.20
2017,01,23,00,28,6.20
2017,01,23,00,29,6.20
2017,01,23,00,30,6.20
2017,01,23,00,31,6.20
2017,01,23,00,32,6.20
2017,01,23,00,33,6.30
2017,01,23,00,34,6.30
2017,01,23,00,35,6.40
2017,01,23,00,36,6.40
2017,01,23,00,37,6.40
2017,01,23,00,38,6.40
2017,01,23,00,39,6.60
2017,01,23,00,40,6.60
2017,01,23,00,41,6.60
2017,01,23,00,42,6.60
2017,01,23,00,43,6.60
2017,01,23,00,44,6.60
2017,01,23,00,45,6.60
2017,01,23,00,46,6.60
2017,01,23,00,47,6.60
2017,01,23,00,48,6.40
2017,01,23,00,49,6.40
2017,01,23,00,50,6.40
2017,01,23,00,51,6.30
2017,01,23,00,52,6.40
2017,01,23,00,53,6.40
2017,01,23,00,54,6.40
2017,01,23,00,55,6.40
2017,01,23,00,56,6.40
2017,01,23,00,57,6.40
2017,01,23,00,58,6.60
2017,01,23,00,59,6.60
2017,01,23,01,00,6.60
2017,01,23,01,01,6.60
2017,01,23,01,02,6.60
2017,01,23,01,03,6.40
2017,01,23,01,04,6.40
2017,01,23,01,05,6.40
2017,01,23,01,06,6.40
2017,01,23,01,07,6.40
2017,01,23,01,08,6.40
2017,01,23,01,09,6.40
2017,01,23,01,10,6.40
2017,01,23,01,11,6.40
2017,01,23,01,12,6.40
2017,01,23,01,13,6.40
2017,01,23,01,14,6.40
2017,01,23,01,15,6.40
2017,01,23,01,16,6.40
2017,01,23,01,17,6.40
2017,01,23,01,18,6.40
2017,01,23,01,19,6.40
2017,01,23,01,20,6.40
2017,01,23,01,21,6.40
2017,01,23,01,22,6.40
2017,01,23,01,23,6.40
2017,01,23,01,24,6.40
2017,01,23,01,25,6.40
2017,01,23,01,26,6.30
2017,01,23,01,27,6.30
2017,01,23,01,28,6.30
2017,01,23,01,29,6.30
2017,01,23,01,30,6.30
2017,01,23,01,31,6.30
2017,01,23,01,32,6.30
2017,01,23,01,33,6.30
2017,01,23,01,34,6.30
2017,01,23,01,35,6.40
2017,01,23,01,36,6.40
2017,01,23,01,37,6.40
2017,01,23,01,38,6.40
2017,01,23,01,39,6.40
2017,01,23,01,41,6.40
2017,01,23,01,42,6.40
2017,01,23,01,43,6.60
2017,01,23,01,44,6.60
2017,01,23,01,46,6.60
2017,01,23,01,47,6.60
2017,01,23,01,48,6.60
2017,01,23,01,49,6.60
2017,01,23,01,51,6.40
2017,01,23,01,52,6.40
2017,01,23,01,53,6.40
2017,01,23,01,54,6.40
2017,01,23,01,56,6.40
2017,01,23,01,57,6.40
2017,01,23,01,58,6.40
2017,01,23,01,59,6.40
2017,01,23,02,01,6.40
2017,01,23,02,02,6.40
2017,01,23,02,03,6.40
2017,01,23,02,04,6.40
2017,01,23,02,06,6.30
2017,01,23,02,07,6.30
2017,01,23,02,08,6.30
2017,01,23,02,09,6.30
2017,01,23,02,11,6.30
2017,01,23,02,12,6.30
2017,01,23,02,13,6.30
2017,01,23,02,14,6.30
2017,01,23,02,16,6.30
2017,01,23,02,17,6.20
2017,01,23,02,18,6.20
2017,01,23,02,19,6.20
2017,01,23,02,21,6.20
2017,01,23,02,22,6.20
2017,01,23,02,23,6.20
2017,01,23,02,24,6.20
2017,01,23,02,26,6.20
2017,01,23,02,27,6.20
2017,01,23,02,28,6.20
2017,01,23,02,29,6.20
2017,01,23,02,31,6.20
2017,01,23,02,32,6.20
2017,01,23,02,33,6.20
2017,01,23,02,34,6.20
2017,01,23,02,36,6.20
2017,01,23,02,37,6.20
2017,01,23,02,38,6.20
2017,01,23,02,39,6.20
2017,01,23,02,41,6.10
2017,01,23,02,42,6.10
2017,01,23,02,43,6.10
2017,01,23,02,44,6.10
2017,01,23,02,46,6.10
2017,01,23,02,47,6.10
2017,01,23,02,48,6.10
2017,01,23,02,49,6.00
2017,01,23,02,50,6.00
2017,01,23,02,51,6.00
2017,01,23,02,52,6.00
2017,01,23,02,53,6.00
2017,01,23,02,54,6.00
2017,01,23,02,55,6.00
2017,01,23,02,56,6.00
2017,01,23,02,57,6.00
2017,01,23,02,58,5.90
2017,01,23,02,59,5.90
2017,01,23,03,00,5.90
2017,01,23,03,01,5.90
2017,01,23,03,02,5.90
2017,01,23,03,03,5.90
2017,01,23,03,04,5.90
2017,01,23,03,05,5.90
2017,01,23,03,06,5.90
2017,01,23,03,07,5.90
2017,01,23,03,08,6.00
2017,01,23,03,09,6.00
2017,01,23,03,10,5.90
2017,01,23,03,11,5.90
2017,01,23,03,12,5.90
2017,01,23,03,13,5.90
2017,01,23,03,14,5.90
2017,01,23,03,15,5.90
2017,01,23,03,16,5.90
2017,01,23,03,17,5.90
2017,01,23,03,18,5.90
2017,01,23,03,19,5.90
2017,01,23,03,20,5.90
2017,01,23,03,21,5.90
2017,01,23,03,22,5.90
2017,01,23,03,23,5.90
2017,01,23,03,24,5.90
2017,01,23,03,25,5.90
2017,01,23,03,26,5.90
2017,01,23,03,27,5.90
2017,01,23,03,28,5.90
2017,01,23,03,29,5.90
2017,01,23,03,30,5.90
2017,01,23,03,31,5.90
2017,01,23,03,32,5.90
2017,01,23,03,33,5.90
2017,01,23,03,34,5.90
2017,01,23,03,35,5.90
2017,01,23,03,36,5.90
2017,01,23,03,37,5.90
2017,01,23,03,38,5.90
2017,01,23,03,39,5.90
2017,01,23,03,40,5.90
2017,01,23,03,41,5.90
2017,01,23,03,42,5.90
2017,01,23,03,43,5.90
2017,01,23,03,44,5.90
2017,01,23,03,45,5.90
2017,01,23,03,46,5.90
2017,01,23,03,47,5.90
2017,01,23,03,48,5.90
2017,01,23,03,49,5.90
2017,01,23,03,50,5.90
2017,01,23,03,51,5.90
2017,01,23,03,52,5.90
2017,01,23,03,53,5.90
2017,01,23,03,54,5.90
2017,01,23,03,55,5.90
2017,01,23,03,56,5.90
2017,01,23,03,57,5.90
2017,01,23,03,58,5.90
2017,01,23,03,59,5.90
2017,01,23,04,01,5.90
2017,01,23,04,02,5.90
2017,01,23,04,03,5.90
2017,01,23,04,04,5.90
2017,01,23,04,06,5.90
2017,01,23,04,07,5.90
2017,01,23,04,08,5.90
2017,01,23,04,09,5.90
2017,01,23,04,11,6.00
2017,01,23,04,12,6.00
2017,01,23,04,13,6.00
2017,01,23,04,14,6.00
2017,01,23,04,16,6.00
2017,01,23,04,17,6.00
2017,01,23,04,18,5.90
2017,01,23,04,19,5.90
2017,01,23,04,21,5.90
2017,01,23,04,22,5.90
2017,01,23,04,23,5.90
2017,01,23,04,24,5.90
2017,01,23,04,26,5.90
2017,01,23,04,27,5.90
2017,01,23,04,28,5.90
2017,01,23,04,29,5.90
2017,01,23,04,31,5.90
2017,01,23,04,32,5.90
2017,01,23,04,33,5.90
2017,01,23,04,34,5.90
2017,01,23,04,36,5.90
2017,01,23,04,37,5.90
2017,01,23,04,38,5.90
2017,01,23,04,39,5.90
2017,01,23,04,41,5.90
2017,01,23,04,42,5.90
2017,01,23,04,43,5.90
2017,01,23,04,44,5.90
2017,01,23,04,46,5.90
2017,01,23,04,47,5.90
2017,01,23,04,48,5.90
2017,01,23,04,49,5.90
2017,01,23,04,51,5.90
2017,01,23,04,52,6.00
2017,01,23,04,53,6.00
2017,01,23,04,54,6.00
2017,01,23,04,56,5.90
2017,01,23,04,57,5.90
2017,01,23,04,58,5.90
2017,01,23,04,59,5.90
2017,01,23,05,01,5.90
2017,01,23,05,02,5.80
2017,01,23,05,03,5.80
2017,01,23,05,04,5.80
2017,01,23,05,06,5.80
2017,01,23,05,07,5.70
2017,01,23,05,08,5.70
2017,01,23,05,09,5.70
2017,01,23,05,10,5.70
2017,01,23,05,11,5.70
2017,01,23,05,12,5.70
2017,01,23,05,13,5.70
2017,01,23,05,14,5.70
2017,01,23,05,15,5.70
2017,01,23,05,16,5.70
2017,01,23,05,17,5.80
2017,01,23,05,18,5.80
2017,01,23,05,19,5.80
2017,01,23,05,20,5.80
2017,01,23,05,21,5.80
2017,01,23,05,22,5.80
2017,01,23,05,23,5.80
2017,01,23,05,24,5.80
2017,01,23,05,25,5.80
2017,01,23,05,26,5.70
2017,01,23,05,27,5.70
2017,01,23,05,28,5.70
2017,01,23,05,29,5.70
2017,01,23,05,30,5.70
2017,01,23,05,31,5.70
2017,01,23,05,32,5.70
2017,01,23,05,33,5.70
2017,01,23,05,34,5.70
2017,01,23,05,35,5.80
2017,01,23,05,36,5.80
2017,01,23,05,37,5.80
2017,01,23,05,38,5.90
2017,01,23,05,39,5.90
2017,01,23,05,40,5.90
2017,01,23,05,41,5.90
2017,01,23,05,42,5.90
2017,01,23,05,43,5.90
2017,01,23,05,44,5.90
2017,01,23,05,45,6.00
2017,01,23,05,46,6.00
2017,01,23,05,47,6.00
2017,01,23,05,48,6.00
2017,01,23,05,49,6.00
2017,01,23,05,50,6.00
2017,01,23,05,51,6.00
2017,01,23,05,52,6.00
2017,01,23,05,53,6.00
2017,01,23,05,54,6.00
2017,01,23,05,55,5.90
2017,01,23,05,56,5.90
2017,01,23,05,57,5.90
2017,01,23,05,58,5.90
2017,01,23,05,59,5.90
2017,01,23,06,00,5.90
2017,01,23,06,01,5.90
2017,01,23,06,02,5.90
2017,01,23,06,03,5.80
2017,01,23,06,04,5.80
2017,01,23,06,05,5.80
2017,01,23,06,06,5.80
2017,01,23,06,07,5.80
2017,01,23,06,08,5.80
2017,01,23,06,09,5.80
2017,01,23,06,10,5.80
2017,01,23,06,11,5.70
2017,01,23,06,13,5.70
2017,01,23,06,14,5.70
2017,01,23,06,16,5.70
2017,01,23,06,17,5.70
2017,01,23,06,18,5.70
2017,01,23,06,19,5.70
2017,01,23,06,21,5.70
2017,01,23,06,22,5.70
2017,01,23,06,23,5.70
2017,01,23,06,24,5.70
2017,01,23,06,26,5.70
2017,01,23,06,27,5.70
2017,01,23,06,28,5.70
2017,01,23,06,29,5.70
2017,01,23,06,31,5.70
2017,01,23,06,32,5.70
2017,01,23,06,33,5.70
2017,01,23,06,34,5.70
2017,01,23,06,36,5.70
2017,01,23,06,37,5.70
2017,01,23,06,38,5.70
2017,01,23,06,39,5.70
2017,01,23,06,41,5.70
2017,01,23,06,42,5.70
2017,01,23,06,43,5.70
2017,01,23,06,44,5.70
2017,01,23,06,46,5.70
2017,01,23,06,47,5.70
2017,01,23,06,48,5.70
2017,01,23,06,49,5.70
2017,01,23,06,51,5.70
2017,01,23,06,52,5.70
2017,01,23,06,53,5.70
2017,01,23,06,54,5.70
2017,01,23,06,56,5.70
2017,01,23,06,57,5.70
2017,01,23,06,58,5.70
2017,01,23,06,59,5.70
2017,01,23,07,01,5.70
2017,01,23,07,02,5.70
2017,01,23,07,03,5.70
2017,01,23,07,04,5.70
2017,01,23,07,06,5.80
2017,01,23,07,07,5.80
2017,01,23,07,08,5.80
2017,01,23,07,09,5.70
2017,01,23,07,11,5.70
2017,01,23,07,12,5.70
2017,01,23,07,13,5.70
2017,01,23,07,14,5.70
2017,01,23,07,16,5.70
2017,01,23,07,17,5.70
2017,01,23,07,29,5.70
2017,01,23,07,31,5.70
2017,01,23,07,32,5.70
2017,01,23,07,33,5.70
2017,01,23,07,34,5.70
2017,01,23,07,36,5.70
2017,01,23,07,37,5.70
2017,01,23,07,38,5.70
2017,01,23,07,39,5.70
2017,01,23,07,40,5.70
2017,01,23,07,41,5.70
2017,01,23,07,42,5.70
2017,01,23,07,43,5.70
2017,01,23,07,44,5.70
2017,01,23,07,46,5.70
2017,01,23,07,47,5.70
2017,01,23,07,48,5.70
2017,01,23,07,49,5.70
2017,01,23,07,50,5.70
2017,01,23,07,51,5.70
2017,01,23,07,52,5.70
2017,01,23,07,53,5.70
2017,01,23,07,54,5.70
2017,01,23,07,55,5.70
2017,01,23,07,56,5.70
2017,01,23,07,57,5.70
2017,01,23,07,58,5.70
2017,01,23,07,59,5.70
2017,01,23,08,00,5.70
2017,01,23,08,01,5.70
2017,01,23,08,02,5.70
2017,01,23,08,03,5.70
2017,01,23,08,04,5.70
2017,01,23,08,05,5.70
2017,01,23,08,06,5.70
2017,01,23,08,08,5.70
2017,01,23,08,29,5.60
2017,01,23,08,30,5.60
2017,01,23,08,31,5.60
2017,01,23,08,32,5.60
2017,01,23,08,33,5.70
2017,01,23,08,34,5.70
2017,01,23,08,35,5.70
2017,01,23,08,36,5.60
2017,01,23,08,37,5.70
2017,01,23,08,38,5.60
2017,01,23,08,39,5.60
2017,01,23,08,40,5.60
2017,01,23,08,41,5.60
2017,01,23,08,42,5.60
2017,01,23,08,43,5.60
2017,01,23,08,44,5.60
2017,01,23,08,45,5.60
2017,01,23,08,46,5.60
2017,01,23,08,47,5.60
2017,01,23,08,48,5.60
2017,01,23,08,49,5.60
2017,01,23,08,50,5.60
2017,01,23,08,51,5.70
2017,01,23,08,52,5.70
2017,01,23,08,53,5.70
2017,01,23,08,54,5.70
2017,01,23,08,55,5.70
2017,01,23,08,56,5.70
2017,01,23,08,57,5.70
2017,01,23,08,58,5.70
2017,01,23,08,59,5.70
2017,01,23,09,00,5.70
2017,01,23,09,01,5.70
2017,01,23,09,02,5.70
2017,01,23,09,03,5.70
2017,01,23,09,04,5.70
2017,01,23,09,05,5.70
2017,01,23,09,06,5.70
2017,01,23,09,07,5.70
2017,01,23,09,08,5.70
2017,01,23,09,09,5.70
2017,01,23,09,10,5.70
2017,01,23,09,11,5.70
2017,01,23,09,12,5.70
2017,01,23,09,13,5.70
2017,01,23,09,14,5.70
2017,01,23,09,15,5.70
2017,01,23,09,16,5.70
2017,01,23,09,17,5.70
2017,01,23,09,18,5.70
2017,01,23,09,19,5.70
2017,01,23,09,21,5.80
2017,01,23,09,22,5.80
2017,01,23,09,23,5.80
2017,01,23,09,24,5.80
2017,01,23,09,26,5.80
2017,01,23,09,27,5.80
2017,01,23,09,28,5.80
2017,01,23,09,29,5.80
2017,01,23,09,31,5.80
2017,01,23,09,32,5.80
2017,01,23,09,33,5.80
2017,01,23,09,34,5.80
2017,01,23,09,36,5.80
2017,01,23,09,37,5.80
2017,01,23,09,38,5.70
2017,01,23,09,39,5.70
2017,01,23,09,41,5.70
2017,01,23,09,42,5.70
2017,01,23,09,43,5.70
2017,01,23,09,44,5.70
2017,01,23,09,46,5.80
2017,01,23,09,47,5.80
2017,01,23,09,48,5.80
2017,01,23,09,49,5.80
2017,01,23,09,51,5.90
2017,01,23,09,52,5.90
2017,01,23,09,53,5.90
2017,01,23,09,54,5.90
2017,01,23,09,56,5.90
2017,01,23,09,57,5.90
2017,01,23,09,58,5.90
2017,01,23,09,59,5.90
2017,01,23,10,01,5.90
2017,01,23,10,02,5.90
2017,01,23,10,03,5.80
2017,01,23,10,04,5.80
2017,01,23,10,06,5.80
2017,01,23,10,07,5.80
2017,01,23,10,08,5.80
2017,01,23,10,09,5.80
2017,01,23,10,11,5.80
2017,01,23,10,12,5.80
2017,01,23,10,13,5.80
2017,01,23,10,14,5.80
2017,01,23,10,16,5.80
2017,01,23,10,17,5.80
2017,01,23,10,18,5.80
2017,01,23,10,19,5.80
2017,01,23,10,21,5.80
2017,01,23,10,22,5.80
2017,01,23,10,23,5.80
2017,01,23,10,24,5.80
2017,01,23,10,26,5.80
2017,01,23,10,27,5.80
2017,01,23,10,28,5.80
2017,01,23,10,29,5.80
2017,01,23,10,31,5.80
2017,01,23,10,32,5.80
2017,01,23,10,33,5.80
2017,01,23,10,34,5.90
2017,01,23,10,36,5.90
2017,01,23,10,37,5.90
2017,01,23,10,38,5.90
2017,01,23,10,39,5.80
2017,01,23,10,41,5.80
2017,01,23,10,42,5.80
2017,01,23,10,43,5.80
2017,01,23,10,44,5.80
2017,01,23,10,46,5.80
2017,01,23,10,47,5.80
2017,01,23,10,48,5.80
2017,01,23,10,49,5.80
2017,01,23,10,51,5.80
2017,01,23,10,52,5.80
2017,01,23,10,53,5.90
2017,01,23,10,54,5.90
2017,01,23,10,55,6.00
2017,01,23,10,56,6.00
2017,01,23,10,57,6.10
2017,01,23,10,58,6.10
2017,01,23,10,59,6.10
2017,01,23,11,00,6.20
2017,01,23,11,01,6.20
2017,01,23,11,02,6.20
2017,01,23,11,03,6.20
2017,01,23,11,04,6.20
2017,01,23,11,06,6.20
2017,01,23,11,07,6.30
2017,01,23,11,08,6.30
2017,01,23,11,09,6.20
2017,01,23,11,11,6.20
2017,01,23,11,12,6.30
2017,01,23,11,13,6.30
2017,01,23,11,14,6.30
2017,01,23,11,16,6.30
2017,01,23,11,17,6.30
2017,01,23,11,18,6.30
2017,01,23,11,19,6.30
2017,01,23,11,20,6.40
2017,01,23,11,21,6.40
2017,01,23,11,22,6.40
2017,01,23,11,23,6.40
2017,01,23,11,24,6.40
2017,01,23,11,25,6.40
2017,01,23,11,26,6.40
2017,01,23,11,27,6.40
2017,01,23,11,28,6.40
2017,01,23,11,29,6.40
2017,01,23,11,30,6.40
2017,01,23,11,31,6.60
2017,01,23,11,32,6.60
2017,01,23,11,33,6.60
2017,01,23,11,34,6.60
2017,01,23,11,35,6.60
2017,01,23,11,36,6.60
2017,01,23,11,37,6.60
2017,01,23,11,38,6.60
2017,01,23,11,39,6.60
2017,01,23,11,40,6.60
2017,01,23,11,41,6.60
2017,01,23,11,42,6.60
2017,01,23,11,43,6.60
2017,01,23,11,44,6.70
2017,01,23,11,45,6.70
2017,01,23,11,46,6.70
2017,01,23,11,47,6.70
2017,01,23,11,48,6.80
2017,01,23,11,49,6.80
2017,01,23,11,50,6.80
2017,01,23,11,51,6.80
2017,01,23,11,52,6.80
2017,01,23,11,53,6.70
2017,01,23,11,54,6.70
2017,01,23,11,56,6.70
2017,01,23,11,57,6.70
2017,01,23,11,58,6.70
2017,01,23,11,59,6.70
2017,01,23,12,01,6.70
2017,01,23,12,02,6.70
2017,01,23,12,03,6.60
2017,01,23,12,04,6.60
2017,01,23,12,05,6.60
2017,01,23,12,07,6.60
2017,01,23,12,08,6.60
2017,01,23,12,09,6.60
2017,01,23,12,11,6.60
2017,01,23,12,12,6.60
2017,01,23,12,13,6.40
2017,01,23,12,14,6.40
2017,01,23,12,16,6.40
2017,01,23,12,17,6.40
2017,01,23,12,18,6.40
2017,01,23,12,19,6.40
2017,01,23,12,21,6.40
2017,01,23,12,22,6.40
2017,01,23,12,23,6.40
2017,01,23,12,24,6.40
2017,01,23,12,26,6.40
2017,01,23,12,27,6.40
2017,01,23,12,28,6.40
2017,01,23,12,29,6.40
2017,01,23,12,31,6.40
2017,01,23,12,32,6.40
2017,01,23,12,33,6.40
2017,01,23,12,34,6.40
2017,01,23,12,36,6.60
2017,01,23,12,37,6.60
2017,01,23,12,38,6.60
2017,01,23,12,39,6.60
2017,01,23,12,41,6.60
2017,01,23,12,42,6.60
2017,01,23,12,43,6.60
2017,01,23,12,44,6.60
2017,01,23,12,46,6.60
2017,01,23,12,47,6.70
2017,01,23,12,48,6.70
2017,01,23,12,49,6.70
2017,01,23,12,51,6.70
2017,01,23,12,52,6.80
2017,01,23,12,53,6.80
2017,01,23,12,54,6.80
2017,01,23,12,56,6.80
2017,01,23,12,57,6.80
2017,01,23,12,58,6.80
2017,01,23,12,59,6.90
2017,01,23,13,01,6.90
2017,01,23,13,02,6.90
2017,01,23,13,03,7.00
2017,01,23,13,04,7.00
2017,01,23,13,06,7.00
2017,01,23,13,07,7.00
2017,01,23,13,08,7.00
2017,01,23,13,09,7.00
2017,01,23,13,11,7.00
2017,01,23,13,12,7.10
2017,01,23,13,13,7.10
2017,01,23,13,14,7.10
2017,01,23,13,15,7.10
2017,01,23,13,16,7.10
2017,01,23,13,17,7.20
2017,01,23,13,18,7.20
2017,01,23,13,19,7.20
2017,01,23,13,20,7.20
2017,01,23,13,21,7.30
2017,01,23,13,22,7.30
2017,01,23,13,23,7.30
2017,01,23,13,24,7.30
2017,01,23,13,25,7.30
2017,01,23,13,26,7.30
2017,01,23,13,27,7.30
2017,01,23,13,28,7.30
2017,01,23,13,29,7.30
2017,01,23,13,30,7.30
2017,01,23,13,31,7.30
2017,01,23,13,32,7.40
2017,01,23,13,33,7.40
2017,01,23,13,34,7.40
2017,01,23,13,35,7.40
2017,01,23,13,36,7.40
2017,01,23,13,37,7.40
2017,01,23,13,38,7.50
2017,01,23,13,39,7.50
2017,01,23,13,40,7.50
2017,01,23,13,41,7.50
2017,01,23,13,42,7.50
2017,01,23,13,43,7.50
2017,01,23,13,44,7.50
2017,01,23,13,45,7.50
2017,01,23,13,46,7.50
2017,01,23,13,47,7.50
2017,01,23,13,48,7.50
2017,01,23,13,49,7.50
2017,01,23,13,50,7.50
2017,01,23,13,51,7.50
2017,01,23,13,52,7.50
2017,01,23,13,53,7.50
2017,01,23,13,54,7.50
2017,01,23,13,55,7.60
2017,01,23,13,56,7.60
2017,01,23,13,57,7.60
2017,01,23,13,59,7.60
2017,01,23,14,00,7.60
2017,01,23,14,02,7.60
2017,01,23,14,03,7.70
2017,01,23,14,04,7.70
2017,01,23,14,06,7.70
2017,01,23,14,07,7.70
2017,01,23,14,08,7.70
2017,01,23,14,09,7.70
2017,01,23,14,11,7.70
2017,01,23,14,12,7.70
2017,01,23,14,13,7.70
2017,01,23,14,14,7.70
2017,01,23,14,16,7.70
2017,01,23,14,17,7.70
2017,01,23,14,18,7.70
2017,01,23,14,19,7.70
2017,01,23,14,21,7.80
2017,01,23,14,22,7.80
2017,01,23,14,23,7.80
2017,01,23,14,24,7.80
2017,01,23,14,26,7.80
2017,01,23,14,27,7.80
2017,01,23,14,28,7.80
2017,01,23,14,29,7.80
2017,01,23,14,31,7.80
2017,01,23,14,32,7.80
2017,01,23,14,33,7.80
2017,01,23,14,34,7.80
2017,01,23,14,36,7.80
2017,01,23,14,37,7.80
2017,01,23,14,38,7.80
2017,01,23,14,39,7.80
2017,01,23,14,41,7.80
2017,01,23,14,42,7.80
2017,01,23,14,43,7.80
2017,01,23,14,44,7.80
2017,01,23,14,46,7.80
2017,01,23,14,47,7.80
2017,01,23,14,48,7.80
2017,01,23,14,49,7.80
2017,01,23,14,51,7.80
2017,01,23,14,52,7.80
2017,01,23,14,53,7.80
2017,01,23,14,54,7.80
2017,01,23,14,56,7.80
2017,01,23,14,57,7.80
2017,01,23,14,58,7.80
2017,01,23,14,59,7.80
2017,01,23,15,01,7.80
2017,01,23,15,02,7.80
2017,01,23,15,03,7.80
2017,01,23,15,04,7.80
2017,01,23,15,06,7.80
2017,01,23,15,07,7.80
2017,01,23,15,08,7.80
2017,01,23,15,09,7.80
2017,01,23,15,10,7.80
2017,01,23,15,11,7.80
2017,01,23,15,12,7.80
2017,01,23,15,13,7.80
2017,01,23,15,14,7.80
2017,01,23,15,15,7.80
2017,01,23,15,16,7.80
2017,01,23,15,17,7.80
2017,01,23,15,18,7.80
2017,01,23,15,19,7.80
2017,01,23,15,20,7.80
2017,01,23,15,21,7.70
2017,01,23,15,22,7.70
2017,01,23,15,23,7.70
2017,01,23,15,24,7.70
2017,01,23,15,25,7.70
2017,01,23,15,26,7.70
2017,01,23,15,27,7.70
2017,01,23,15,28,7.70
2017,01,23,15,29,7.70
2017,01,23,15,30,7.70
2017,01,23,15,31,7.70
2017,01,23,15,32,7.70
2017,01,23,15,33,7.70
2017,01,23,15,34,7.70
2017,01,23,15,35,7.70
2017,01,23,15,36,7.70
2017,01,23,15,37,7.70
2017,01,23,15,38,7.70
2017,01,23,15,39,7.70
2017,01,23,15,40,7.70
2017,01,23,15,41,7.70
2017,01,23,15,42,7.70
2017,01,23,15,43,7.70
2017,01,23,15,44,7.60
2017,01,23,15,45,7.60
2017,01,23,15,46,7.60
2017,01,23,15,47,7.60
2017,01,23,15,48,7.60
2017,01,23,15,49,7.60
2017,01,23,15,50,7.60
2017,01,23,15,51,7.60
2017,01,23,15,52,7.50
2017,01,23,15,53,7.50
2017,01,23,15,54,7.50
2017,01,23,15,55,7.50
2017,01,23,15,56,7.60
2017,01,23,15,57,7.60
2017,01,23,15,58,7.60
2017,01,23,15,59,7.60
2017,01,23,16,00,7.60
2017,01,23,16,01,7.60
2017,01,23,16,02,7.60
2017,01,23,16,03,7.60
2017,01,23,16,04,7.70
2017,01,23,16,05,7.70
2017,01,23,16,06,7.70
2017,01,23,16,07,7.70
2017,01,23,16,08,7.70
2017,01,23,16,09,7.70
2017,01,23,16,10,7.70
2017,01,23,16,11,7.70
2017,01,23,16,12,7.70
2017,01,23,16,13,7.70
2017,01,23,16,14,7.70
2017,01,23,16,16,7.70
2017,01,23,16,17,7.70
2017,01,23,16,18,7.70
2017,01,23,16,19,7.60
2017,01,23,16,21,7.60
2017,01,23,16,22,7.60
2017,01,23,16,23,7.60
2017,01,23,16,24,7.50
2017,01,23,16,26,7.50
2017,01,23,16,27,7.40
2017,01,23,16,28,7.40
2017,01,23,16,29,7.40
2017,01,23,16,31,7.30
2017,01,23,16,32,7.30
2017,01,23,16,33,7.30
2017,01,23,16,34,7.30
2017,01,23,16,36,7.30
2017,01,23,16,37,7.30
2017,01,23,16,38,7.20
2017,01,23,16,39,7.20
2017,01,23,16,41,7.10
2017,01,23,16,42,7.10
2017,01,23,16,43,7.00
2017,01,23,16,44,7.00
2017,01,23,16,46,6.90
2017,01,23,16,47,6.90
2017,01,23,16,48,6.90
2017,01,23,16,49,6.90
2017,01,23,16,51,6.80
2017,01,23,16,52,6.80
2017,01,23,16,53,6.80
2017,01,23,16,54,6.80
2017,01,23,16,56,6.80
2017,01,23,16,57,6.80
2017,01,23,16,58,6.80
2017,01,23,16,59,6.80
2017,01,23,17,01,6.70
2017,01,23,17,02,6.70
2017,01,23,17,03,6.70
2017,01,23,17,04,6.70
2017,01,23,17,06,6.60
2017,01,23,17,07,6.60
2017,01,23,17,08,6.60
2017,01,23,17,09,6.60
2017,01,23,17,11,6.60
2017,01,23,17,12,6.60
2017,01,23,17,13,6.60
2017,01,23,17,14,6.60
2017,01,23,17,16,6.40
2017,01,23,17,17,6.40
2017,01,23,17,18,6.40
2017,01,23,17,19,6.40
2017,01,23,17,21,6.40
2017,01,23,17,22,6.40
2017,01,23,17,23,6.40
2017,01,23,17,24,6.30
2017,01,23,17,26,6.30
2017,01,23,17,27,6.30
2017,01,23,17,28,6.30
2017,01,23,17,29,6.20
2017,01,23,17,31,6.20
2017,01,23,17,32,6.20
2017,01,23,17,33,6.20
2017,01,23,17,34,6.20
2017,01,23,17,35,6.20
2017,01,23,17,36,6.20
2017,01,23,17,37,6.20
2017,01,23,17,38,6.20
2017,01,23,17,39,6.20
2017,01,23,17,40,6.10
2017,01,23,17,41,6.10
2017,01,23,17,42,6.10
2017,01,23,17,43,6.10
2017,01,23,17,44,6.10
2017,01,23,17,45,6.10
2017,01,23,17,46,6.10
2017,01,23,17,47,6.00
2017,01,23,17,48,6.00
2017,01,23,17,49,6.00
2017,01,23,17,50,6.00
2017,01,23,17,51,6.00
2017,01,23,17,52,6.00
2017,01,23,17,53,5.90
2017,01,23,17,54,5.90
2017,01,23,17,55,5.90
2017,01,23,17,56,5.90
2017,01,23,17,57,5.90
2017,01,23,17,58,5.90
2017,01,23,17,59,5.90
2017,01,23,18,00,5.80
2017,01,23,18,01,5.80
2017,01,23,18,02,5.80
2017,01,23,18,03,5.80
2017,01,23,18,04,5.80
2017,01,23,18,05,5.70
2017,01,23,18,06,5.70
2017,01,23,18,07,5.70
2017,01,23,18,08,5.70
2017,01,23,18,09,5.70
2017,01,23,18,10,5.70
2017,01,23,18,11,5.70
2017,01,23,18,12,5.70
2017,01,23,18,13,5.70
2017,01,23,18,14,5.70
2017,01,23,18,15,5.70
2017,01,23,18,16,5.70
2017,01,23,18,17,5.70
2017,01,23,18,18,5.70
2017,01,23,18,19,5.70
2017,01,23,18,20,5.70
2017,01,23,18,21,5.70
2017,01,23,18,22,5.70
2017,01,23,18,23,5.70
2017,01,23,18,24,5.60
2017,01,23,18,25,5.60
2017,01,23,18,26,5.60
2017,01,23,18,27,5.60
2017,01,23,18,28,5.60
2017,01,23,18,29,5.60
2017,01,23,18,30,5.60
2017,01,23,18,31,5.60
2017,01,23,18,32,5.50
2017,01,23,18,33,5.50
2017,01,23,18,34,5.50
2017,01,23,18,35,5.50
2017,01,23,18,36,5.50
2017,01,23,18,37,5.50
2017,01,23,18,38,5.50
2017,01,23,18,39,5.50
2017,01,23,18,41,5.50
2017,01,23,18,42,5.50
2017,01,23,18,43,5.40
2017,01,23,18,44,5.40
2017,01,23,18,46,5.40
2017,01,23,18,47,5.40
2017,01,23,18,48,5.40
2017,01,23,18,49,5.50
2017,01,23,18,51,5.50
2017,01,23,18,52,5.50
2017,01,23,18,53,5.50
2017,01,23,18,54,5.50
2017,01,23,18,56,5.50
2017,01,23,18,57,5.50
2017,01,23,18,58,5.50
2017,01,23,18,59,5.50
2017,01,23,19,01,5.50
2017,01,23,19,02,5.50
2017,01,23,19,03,5.50
2017,01,23,19,04,5.50
2017,01,23,19,06,5.50
2017,01,23,19,07,5.50
2017,01,23,19,08,5.50
2017,01,23,19,09,5.50
2017,01,23,19,11,5.50
2017,01,23,19,12,5.40
2017,01,23,19,13,5.40
2017,01,23,19,14,5.40
2017,01,23,19,16,5.40
2017,01,23,19,17,5.40
2017,01,23,19,18,5.40
2017,01,23,19,19,5.40
2017,01,23,19,21,5.40
2017,01,23,19,22,5.40
2017,01,23,19,23,5.40
2017,01,23,19,24,5.40
2017,01,23,19,26,5.30
2017,01,23,19,27,5.30
2017,01,23,19,28,5.30
2017,01,23,19,29,5.30
2017,01,23,19,31,5.30
2017,01,23,19,32,5.30
2017,01,23,19,33,5.30
2017,01,23,19,34,5.30
2017,01,23,19,36,5.30
2017,01,23,19,37,5.30
2017,01,23,19,38,5.30
2017,01,23,19,39,5.30
2017,01,23,19,41,5.30
2017,01,23,19,42,5.30
2017,01,23,19,43,5.30
2017,01,23,19,44,5.30
2017,01,23,19,45,5.30
2017,01,23,19,46,5.30
2017,01,23,19,47,5.30
2017,01,23,19,48,5.30
2017,01,23,19,49,5.30
2017,01,23,19,51,5.30
2017,01,23,19,52,5.30
2017,01,23,19,53,5.30
2017,01,23,19,54,5.30
2017,01,23,19,55,5.30
2017,01,23,19,56,5.30
2017,01,23,19,57,5.30
2017,01,23,19,58,5.30
2017,01,23,19,59,5.30
2017,01,23,20,00,5.30
2017,01,23,20,01,5.30
2017,01,23,20,02,5.30
2017,01,23,20,03,5.40
2017,01,23,20,04,5.40
2017,01,23,20,06,5.50
2017,01,23,20,07,5.50
2017,01,23,20,08,5.50
2017,01,23,20,09,5.50
2017,01,23,20,10,5.50
2017,01,23,20,11,5.60
2017,01,23,20,12,5.60
2017,01,23,20,13,5.60
2017,01,23,20,14,5.60
2017,01,23,20,15,5.70
2017,01,23,20,16,5.70
2017,01,23,20,17,5.70
2017,01,23,20,18,5.70
2017,01,23,20,19,5.70
2017,01,23,20,20,5.70
2017,01,23,20,21,5.70
2017,01,23,20,22,5.70
2017,01,23,20,23,5.80
2017,01,23,20,24,5.80
2017,01,23,20,25,5.80
2017,01,23,20,26,5.90
2017,01,23,20,27,5.90
2017,01,23,20,28,5.90
2017,01,23,20,29,6.00
2017,01,23,20,30,6.00
2017,01,23,20,31,6.00
2017,01,23,20,32,6.00
2017,01,23,20,33,6.00
2017,01,23,20,34,6.00
2017,01,23,20,35,6.00
2017,01,23,20,36,6.00
2017,01,23,20,37,6.00
2017,01,23,20,38,6.00
2017,01,23,20,39,6.00
2017,01,23,20,40,6.00
2017,01,23,20,41,6.00
2017,01,23,20,42,6.00
2017,01,23,20,43,6.00
2017,01,23,20,44,6.00
2017,01,23,20,45,6.00
2017,01,23,20,46,6.00
2017,01,23,20,47,6.00
2017,01,23,20,48,6.00
2017,01,23,20,49,6.00
2017,01,23,20,50,6.00
2017,01,23,20,51,6.00
2017,01,23,20,52,6.00
2017,01,23,20,53,6.10